Snowfall_Accumulation
0.0 0.0 0.0 0.0 0.0 0.0 0.0 0.0 0.0 0.0 0.0 0.0 0.0 0.0 0.1 0.5 0.5 0.7 0.8 0.5 0.3 0.3
0.0 0.0 0.0 0.0 0.0 0.0 0.0 0.0 0.0 0.0 0.0 0.0 0.2 0.5 1.2 1.9 2.2 1.6 1.6 1.2 0.7 0.6
0.0 0.0 0.0 0.0 0.0 0.0 0.0 0.0 0.2 0.2 0.3 0.5 1.3 2.9 3.7 4.1 3.6 3.3 2.1 1.7 1.8 1.0
0.0 0.0 0.0 0.0 0.0 0.3 0.4 0.5 0.7 1.3 2.2 3.4 4.8 3.8 4.6 4.7 3.3 2.6 2.2 2.1 1.7 1.5
0.0 0.0 0.0 0.0 0.1 0.2 0.3 0.5 1.1 1.7 2.9 4.3 3.6 2.9 3.8 3.7 2.6 2.2 2.0 2.0 1.9 1.8
0.0 0.0 0.0 0.1 0.2 0.1 0.5 0.7 1.1 1.7 4.2 5.0 3.5 3.7 3.4 2.7 2.2 1.7 1.7 1.8 2.1 1.7
0.0 0.0 0.1 0.2 0.1 0.3 0.8 1.1 1.2 2.3 4.7 5.2 4.5 4.1 3.3 1.9 2.4 2.4 2.6 2.3 1.2 0.7
0.0 0.1 0.1 0.2 0.2 0.5 0.9 1.5 1.7 2.2 2.9 4.5 5.5 5.2 3.9 2.7 2.4 3.4 3.4 2.3 0.7 0.2
0.0 0.1 0.2 0.2 0.2 0.4 1.2 1.7 0.6 1.7 2.7 3.9 6.2 4.8 4.0 4.3 4.8 3.9 3.2 2.9 1.9 0.9
0.0 0.2 0.5 0.4 0.2 0.4 1.5 1.3 1.1 1.8 2.5 4.2 5.3 3.8 4.5 5.3 5.7 5.9 5.3 3.9 2.4 2.1
0.0 0.4 0.9 0.1 0.2 0.4 0.6 1.3 1.4 2.4 3.3 4.6 6.1 4.2 3.9 4.4 4.9 4.8 4.4 4.6 4.4 2.7
0.2 0.6 0.7 0.3 0.3 0.4 0.4 0.9 1.0 2.0 2.9 4.1 6.6 4.8 3.8 2.8 2.3 2.2 3.3 3.4 3.5 1.9
0.3 0.5 0.8 0.7 0.7 0.6 0.6 0.8 0.4 0.9 2.9 2.8 4.5 4.4 2.9 2.4 1.2 1.8 2.0 2.1 2.8 1.7
0.5 0.6 0.6 0.7 0.7 0.6 0.7 0.1 0.5 0.5 1.0 2.9 2.3 3.1 2.0 1.6 2.2 1.7 1.5 2.3 3.7 3.5